Weather History for Fitchburg, MA

Change the Weather History Date:

Tuesday, March 12, 2013

  Actual Average (KORH) Record (KORH)
Temperature  
Mean Temperature 48 °F 33 °F  
Max Temperature 53 °F 41 °F 68 °F (2012)
Min Temperature 42 °F 25 °F 2 °F (1948)
Degree Days  
Heating Degree Days 18 32  
Month to date heating degree days 401  
Since 1 July heating degree days 5238  
Cooling Degree Days 0 0  
Month to date cooling degree days 0  
Year to date cooling degree days 0  
Moisture  
Dew Point 45 °F    
Average Humidity 93    
Maximum Humidity 100    
Minimum Humidity 80    
Precipitation  
Precipitation 0.40 in 0.13 in 2.31 in (1936)
Month to date precipitation 1.52  
Year to date precipitation 8.24  
Sea Level Pressure  
Sea Level Pressure 29.94 in    
Wind  
Wind Speed 5 mph (SSE)    
Max Wind Speed 10 mph    
Max Gust Speed -    
Visibility 6 miles    
Events Fog , Rain    
T = Trace of Precipitation, MM = Missing Value Source: NWS Daily Summary

Daily Weather History Graph

Daily Weather History Graph

Search for Another Location

Airport:

Trip Planner

Search our weather history database for the weather conditions in past years. The results will help you decide how hot, cold, wet, or windy it might be!

Date:

Astronomy

Mar. 12, 2013 Rise Set
Actual Time 7:03 AM EDT 6:50 PM EDT
Civil Twilight 6:35 AM EDT 7:18 PM EDT
Nautical Twilight 6:03 AM EDT 7:51 PM EDT
Astronomical Twilight 5:30 AM EDT 8:24 PM EDT
Moon 7:06 AM EDT (3/12) 8:04 PM EDT (3/12)
Length of Visible Light 12h 42m
Length of Day
11h 46m
New Moon, 1% of the Moon is Illuminated
Mar 12
New Moon
Mar 19
First Quarter
Mar 27
Full
Apr 3
Last Quarter
Apr 10
New

Hourly Weather History & Observations

Time (EDT) Temp. Windchill Dew Point Humidity Pressure Visibility Wind Dir Wind Speed Gust Speed Precip Events Conditions
12:09 AM 44.6 °F 40.2 °F 39.2 °F 81% 30.13 in 10.0 mi ESE 8.1 mph - N/A   Mostly Cloudy
12:52 AM 44.1 °F 40.1 °F 39.9 °F 85% 30.13 in 10.0 mi ESE 6.9 mph - N/A   Overcast
1:39 AM 44.6 °F 40.7 °F 41.0 °F 87% 30.12 in 10.0 mi SE 6.9 mph - N/A   Overcast
1:52 AM 44.1 °F 40.1 °F 41.0 °F 89% 30.13 in 10.0 mi SE 6.9 mph - N/A   Overcast
2:41 AM 44.6 °F 40.2 °F 41.0 °F 87% 30.09 in 10.0 mi SE 8.1 mph - N/A   Overcast
2:52 AM 44.1 °F 40.1 °F 41.0 °F 89% 30.09 in 10.0 mi ESE 6.9 mph - N/A   Overcast
3:52 AM 43.0 °F 41.3 °F 41.0 °F 93% 30.07 in 10.0 mi SE 3.5 mph - N/A   Overcast
5:52 AM 43.0 °F - 42.1 °F 97% 30.06 in 8.0 mi Calm Calm - N/A   Overcast
6:52 AM 42.1 °F - 41.0 °F 96% 30.05 in 8.0 mi Calm Calm - N/A   Overcast
7:30 AM 42.8 °F 41.1 °F 42.8 °F 100% 30.03 in 4.0 mi SE 3.5 mph - N/A   Overcast
7:52 AM 43.0 °F 41.3 °F 42.1 °F 97% 30.04 in 3.0 mi SSE 3.5 mph - N/A   Overcast
7:59 AM 42.8 °F 41.1 °F 42.8 °F 100% 30.03 in 2.5 mi SSE 3.5 mph - N/A   Overcast
8:24 AM 42.8 °F - 42.8 °F 100% 30.03 in 1.2 mi Calm Calm - N/A   Overcast
8:39 AM 42.8 °F 41.1 °F 42.8 °F 100% 30.02 in 2.0 mi SE 3.5 mph - N/A   Overcast
8:52 AM 44.1 °F - 43.0 °F 96% 30.04 in 2.0 mi Calm Calm - N/A   Overcast
9:31 AM 42.8 °F - 42.8 °F 100% 30.03 in 1.0 mi Calm Calm - 0.00 in   Overcast
9:38 AM 42.8 °F - 42.8 °F 100% 30.02 in 0.2 mi Calm Calm - 0.00 in Fog Fog
9:52 AM 43.0 °F - 42.1 °F 97% 30.04 in 0.5 mi Calm Calm - 0.00 in Fog Fog
9:58 AM 42.8 °F - 42.8 °F 100% 30.02 in 1.2 mi Calm Calm - N/A   Overcast
10:05 AM 42.8 °F - 42.8 °F 100% 30.02 in 1.0 mi Calm Calm - N/A   Overcast
10:12 AM 42.8 °F - 42.8 °F 100% 30.02 in 2.0 mi Calm Calm - N/A   Overcast
10:23 AM 42.8 °F - 42.8 °F 100% 30.01 in 3.0 mi Calm Calm - N/A   Overcast
10:29 AM 44.6 °F - 42.8 °F 93% 30.01 in 3.0 mi Calm Calm - N/A   Overcast
10:52 AM 45.0 °F - 43.0 °F 93% 30.01 in 4.0 mi Calm Calm - N/A   Overcast
11:52 AM 48.0 °F - 45.0 °F 89% 29.98 in 7.0 mi Calm Calm - 0.00 in   Overcast
12:52 PM 53.1 °F - 46.9 °F 80% 29.95 in 10.0 mi SSE 9.2 mph - N/A   Overcast
1:52 PM 52.0 °F - 50.0 °F 93% 29.92 in 5.0 mi SSE 4.6 mph - 0.00 in   Overcast
2:52 PM 53.1 °F - 50.0 °F 89% 29.89 in 5.0 mi Calm Calm - 0.02 in Rain Light Rain
3:52 PM 53.1 °F - 50.0 °F 89% 29.85 in 5.0 mi SE 9.2 mph - 0.02 in Rain Light Rain
4:30 PM 51.8 °F - 50.0 °F 94% 29.82 in 3.0 mi SE 8.1 mph - 0.03 in Rain Light Rain
4:50 PM 51.8 °F - 50.0 °F 94% 29.81 in 4.0 mi SE 9.2 mph - 0.04 in Rain Light Rain
4:52 PM 52.0 °F - 50.0 °F 93% 29.82 in 4.0 mi SE 8.1 mph - 0.04 in Rain Light Rain
5:52 PM 52.0 °F - 50.0 °F 93% 29.78 in 3.0 mi SSE 8.1 mph - 0.09 in Rain Light Rain
6:52 PM 52.0 °F - 50.0 °F 93% 29.76 in 4.0 mi SSE 8.1 mph - 0.10 in Rain Rain
7:24 PM 51.8 °F - 50.0 °F 94% 29.73 in 4.0 mi SSE 10.4 mph - 0.08 in Rain Rain
7:52 PM 52.0 °F - 51.1 °F 97% 29.73 in 3.0 mi SSE 10.4 mph - 0.11 in Rain Light Rain
8:52 PM 51.1 °F - 50.0 °F 96% 29.73 in 6.0 mi SSE 4.6 mph - 0.02 in Rain Light Rain
9:17 PM 51.8 °F - 50.0 °F 94% 29.72 in 7.0 mi South 8.1 mph - 0.00 in   Overcast
9:52 PM 52.0 °F - 50.0 °F 93% 29.73 in 10.0 mi SSE 4.6 mph - 0.00 in   Overcast
10:52 PM 50.0 °F - 48.0 °F 93% 29.74 in 8.0 mi SW 4.6 mph - N/A   Overcast
11:24 PM 50.0 °F - 44.6 °F 82% 29.74 in 10.0 mi West 9.2 mph - N/A   Mostly Cloudy
11:31 PM 48.2 °F - 44.6 °F 87% 29.74 in 10.0 mi Variable 5.8 mph - N/A   Mostly Cloudy
11:52 PM 48.0 °F - 43.0 °F 83% 29.76 in 10.0 mi NW 4.6 mph - N/A   Overcast